#timestamp,LO_Frequency,Hit,StdDev 
1643184015.2,286047008.9,N
1643184035.0,286047010.5,N
1643184035.9,286047010.5,N
1643184055.8,286047005.0,N
1643184075.6,286047005.3,N
1643184095.4,286046999.6,N
1643184115.3,286046991.8,N
1643184135.1,286046996.2,N
1643184155.9,286046999.6,N
1643184175.7,286047001.2,N
1643184195.5,286046998.5,N
1643184215.4,286047000.4,N
1643184235.2,286047002.0,N
1643184255.0,286047003.2,N
1643184256.0,286047003.2,N
1643184275.8,286046999.8,N
1643184295.6,286046998.7,N
1643184315.5,286047004.2,N
1643184335.3,286047001.6,N
1643184355.1,286047004.4,N
1643184375.9,286047009.2,N
1643184395.7,286047005.9,N
1643184415.6,286047004.0,N
1643184435.4,286047001.9,N
1643184455.2,286047005.3,N
1643184475.1,286047002.9,N
1643184476.0,286047002.9,N
1643184495.8,286047002.5,N
1643184515.7,286046998.7,N
1643184535.5,286046991.1,N
1643184555.3,286046992.3,N
1643184575.2,286046997.7,N
1643184595.0,286046997.7,N
1643184595.9,286046997.7,N
1643184615.8,286046999.3,N
1643184635.6,286047000.4,N
1643184655.5,286046998.6,N
1643184675.3,286046996.8,N
1643184695.2,286046997.8,N
1643184715.9,286046997.2,N
1643184735.7,286046993.4,N
1643184755.6,286046992.7,N
1643184775.4,286046993.2,N
1643184795.2,286046989.8,N
1643184815.1,286046994.1,N
1643184816.0,286046994.1,N
1643184835.8,286046997.0,N
1643184855.7,286046997.6,N
1643184875.5,286046996.3,N
1643184895.3,286047000.6,N
1643184915.2,286047002.6,N
1643184935.0,286046998.5,N
1643184935.9,286046998.5,N
1643184955.8,286046998.8,N
1643184975.6,286046996.5,N
1643184995.4,286046998.1,N
1643185015.3,286047002.0,N
1643185035.1,286047004.0,N
1643185055.9,286047002.3,N
1643185075.7,286047004.3,N
1643185095.5,286046997.5,N
1643185115.4,286046990.6,N
1643185135.2,286046994.7,N
1643185155.0,286046996.7,N
1643185155.9,286046996.7,N
1643185175.8,286046995.2,N
1643185195.6,286046999.6,N
1643185215.5,286047001.2,N
1643185235.3,286046998.2,N
1643185255.1,286047000.3,N
1643185275.9,286046997.3,N
1643185295.7,286046995.0,N
1643185315.6,286046998.7,N
1643185335.4,286046996.4,N
1643185355.2,286046997.6,N
1643185375.1,286046995.0,N
1643185376.0,286046995.0,N
1643185395.8,286046992.3,N
1643185415.7,286046994.4,N
1643185435.5,286046993.8,N
1643185455.4,286046990.5,N
1643185475.2,286046989.2,Y
1643185495.0,286046999.1,P
1643185495.9,286046999.1,N
1643185515.8,286047001.3,N
1643185535.6,286046999.9,N
1643185555.5,286047004.4,Y
1643185575.3,286047008.6,P
1643185595.1,286047016.7,P
1643185615.9,286047017.0,N
1643185635.7,286047006.6,N
1643185655.5,286047006.0,N
1643185675.4,286047002.2,N
1643185695.2,286047002.6,N
1643185715.1,286047002.5,N
1643185716.0,286047002.5,N
1643185735.8,286046998.2,N
1643185755.6,286046999.1,N
1643185775.5,286047002.5,N
1643185795.3,286047000.2,N
1643185815.2,286047003.9,N
1643185835.9,286047004.2,N
1643185855.7,286047001.5,N
1643185875.6,286047003.5,N
1643185895.4,286047000.6,N
1643185915.2,286046996.8,N
1643185935.1,286046993.7,N
1643185936.0,286046993.7,N
1643185955.8,286046999.6,N
1643185975.7,286047002.0,N
1643185995.5,286047001.9,N
1643186015.3,286047001.9,N
1643186035.2,286047002.5,N
1643186055.0,286047005.7,N
1643186055.9,286047005.7,N
1643186075.7,286047004.9,N
1643186095.6,286047012.3,N
1643186115.4,286047007.9,N
1643186135.3,286047005.0,N
1643186155.1,286047006.6,N
1643186175.5,286047008.5,N
1643186195.4,286047002.2,N
1643186215.2,286046997.9,N
1643186235.1,286046993.6,N
1643186236.0,286046993.6,N
1643186255.8,286046994.3,N
1643186275.6,286046993.1,N
1643186295.5,286046995.7,N
1643186315.3,286046995.5,N
1643186335.2,286046999.4,N
1643186355.9,286047002.6,N
1643186375.7,286046997.2,N
1643186395.6,286046996.4,N
1643186415.4,286046995.1,N
1643186435.2,286046997.6,N
1643186455.1,286046996.0,N
1643186456.0,286046996.0,N
1643186475.8,286046998.1,N
1643186495.7,286046998.3,N
1643186515.5,286046996.4,N
1643186535.3,286046997.5,N
1643186555.2,286046993.4,N
1643186575.0,286046992.5,N
1643186575.9,286046992.5,N
1643186625.8,286046997.9,E
1643186635.7,286046997.3,N
1643186655.5,286047001.7,P
1643186675.4,286047003.1,N
1643186695.2,286047000.5,N
1643186715.1,286046992.1,Y
1643186716.0,286046992.1,P
1643186735.8,286046992.0,N
1643186755.6,286046988.9,N
1643186775.5,286046988.6,N
1643186795.3,286046987.2,N
1643186815.2,286046989.3,N
1643186835.9,286046988.2,N
1643186855.7,286046990.5,N
1643186875.6,286046991.7,N
1643186895.4,286046992.7,N
1643186915.2,286046993.4,N
1643186935.1,286046991.0,N
1643186936.0,286046991.0,N
1643186955.8,286046990.7,N
1643186975.7,286046988.5,Y
1643186995.5,286046999.2,P
1643187015.3,286047002.8,N
1643187035.2,286047003.7,N
1643187055.0,286047001.2,N
1643187055.9,286047001.2,N
1643187075.8,286046998.3,N
1643187095.6,286047000.2,N
1643187115.4,286047003.9,N
1643187135.3,286046997.1,N
1643187155.1,286046996.1,N
1643187175.9,286046994.2,N
1643187195.7,286046993.8,N
1643187215.5,286046995.6,N
1643187235.4,286047000.1,N
1643187255.2,286046993.8,N
1643187275.0,286046993.3,N
1643187275.9,286046993.3,N
1643187295.8,286046993.9,N
1643187315.6,286046993.9,N
1643187335.5,286046999.1,N
1643187355.3,286047002.6,N
1643187375.1,286047000.7,N
1643187395.9,286047003.0,N
1643187415.7,286047005.4,N
1643187435.5,286047003.8,N
1643187455.4,286047003.5,N
1643187475.2,286047001.5,N
1643187495.1,286047003.3,N
1643187496.0,286047003.3,N
1643187515.8,286047006.0,N
1643187535.6,286047001.5,N
1643187555.5,286047000.0,N
1643187575.3,286046998.2,N
1643187595.1,286046999.6,N
